Torna al catalogo

MOLNIYA 1-62

AttivoComunicazioniHEO
NORAD 15214·PAYLOAD·🇷🇺 Russia

Lanciato Aug 24, 1984 da Plesetsk Cosmodrome

Loading…

Prossimi Passaggi (prossime 24 ore)

TLE

AggiornatoSource: Space-Track

Epoca: Sep 12, 2026, 13:35 UTC

1 15214U 84089A   26255.56616768  .00000095  00000-0  00000-0 0  9991
2 15214  63.0260 107.5124 6990186 279.0308  14.0736  2.29640244 14447

Traccia MOLNIYA 1-62 in tempo reale con AllMySat

Download on the App Store